KT2UU-13 Weather Reports


time (UTC)temp
C
wind
direction
speed
KPH
gust
KPH
rain 1hr
cm
rain 24hr
cm
rain mn
cm
humidity
%
barometer
mb
20260905140756 28 211 0.0 0.0 0.00 0.00 0.00 81 1016.5
20260905140250 28 213 0.0 0.0 0.00 0.00 0.00 81 1016.2
20260905135749 28 217 0.0 0.0 0.00 0.00 0.00 82 1016.2
20260905135245 28 216 0.0 0.0 0.00 0.00 0.00 82 1016.2
20260905134745 28 213 0.0 0.0 0.00 0.00 0.00 83 1016.4
20260905134239 27 215 0.0 0.0 0.00 0.00 0.00 85 1016.5
20260905133734 27 215 0.0 3.2 0.00 0.00 0.00 86 1016.4
20260905133229 27 213 0.0 0.0 0.00 0.00 0.00 85 1016.7
20260905132728 27 211 0.0 0.0 0.00 0.00 0.00 86 1016.6
20260905132224 27 211 0.0 0.0 0.00 0.00 0.00 86 1016.6
20260905131719 27 211 0.0 0.0 0.00 0.00 0.00 86 1016.7
20260905131214 27 211 0.0 0.0 0.00 0.00 0.00 85 1016.7
20260905130714 27 213 0.0 0.0 0.00 0.00 0.00 86 1016.6
20260905130208 27 213 0.0 0.0 0.00 0.00 0.00 87 1016.8
20260905125703 27 206 0.0 0.0 0.00 0.00 0.00 88 1016.7
20260905125158 27 213 0.0 0.0 0.00 0.00 0.00 88 1016.7
20260905124654 27 206 0.0 0.0 0.00 0.00 0.00 88 1016.7
20260905124150 26 213 0.0 0.0 0.00 0.00 0.00 89 1016.8
20260905123645 26 206 0.0 0.0 0.00 0.00 0.00 88 1016.6
20260905123142 26 213 0.0 0.0 0.00 0.00 0.00 92 1016.6
20260905122641 25 213 0.0 0.0 0.00 0.00 0.00 94 1016.7
20260905122137 24 213 0.0 0.0 0.00 0.00 0.00 97 1016.6
20260905121631 24 213 0.0 0.0 0.00 0.00 0.00 99 1016.6
20260905121127 23 213 0.0 0.0 0.00 0.00 0.00 99 1016.6
20260905120626 22 213 0.0 0.0 0.00 0.00 0.00 99 1016.5
20260905120121 22 213 0.0 0.0 0.00 0.00 0.00 99 1016.5
20260905115620 22 208 0.0 0.0 0.00 0.00 0.00 99 1016.6
20260905115115 22 208 0.0 0.0 0.00 0.00 0.00 99 1016.4
20260905114614 22 208 0.0 0.0 0.00 0.00 0.00 99 1016.3
20260905114113 22 208 0.0 0.0 0.00 0.00 0.00 99 1016.2
20260905113603 22 208 0.0 0.0 0.00 0.00 0.00 99 1016.1
20260905113057 22 208 0.0 0.0 0.00 0.00 0.00 99 1015.9
20260905112547 22 208 0.0 0.0 0.00 0.00 0.00 99 1016.1
20260905112042 22 208 0.0 0.0 0.00 0.00 0.00 99 1015.8
20260905111537 22 208 0.0 0.0 0.00 0.00 0.00 99 1015.7
20260905111036 22 208 0.0 0.0 0.00 0.00 0.00 99 1015.6
20260905110535 22 208 0.0 0.0 0.00 0.00 0.00 99 1015.6
20260905110030 22 208 0.0 0.0 0.00 0.00 0.00 99 1015.6
20260905105525 22 208 0.0 0.0 0.00 0.00 0.00 99 1015.4
20260905105024 22 213 0.0 0.0 0.00 0.00 0.00 99 1015.4
20260905104520 22 213 0.0 0.0 0.00 0.00 0.00 99 1015.3
20260905104020 22 208 0.0 0.0 0.00 0.00 0.00 99 1015.4
20260905103515 22 213 0.0 0.0 0.00 0.00 0.00 99 1015.4
20260905103012 22 208 0.0 0.0 0.00 0.00 0.00 99 1015.3
20260905102507 22 208 0.0 0.0 0.00 0.00 0.00 99 1015.4
20260905102003 22 213 0.0 0.0 0.00 0.00 0.00 99 1015.3
20260905101501 22 208 0.0 0.0 0.00 0.00 0.00 99 1015.5
20260905101000 22 213 0.0 0.0 0.00 0.00 0.00 99 1015.4
20260905100456 22 208 0.0 0.0 0.00 0.00 0.00 99 1015.5
20260905095955 22 208 0.0 0.0 0.00 0.00 0.00 99 1015.5
20260905095450 22 208 0.0 0.0 0.00 0.00 0.00 99 1015.4
20260905094945 22 208 0.0 0.0 0.00 0.00 0.00 99 1015.3
20260905094441 22 216 0.0 0.0 0.00 0.00 0.00 99 1015.5
20260905093939 22 208 0.0 0.0 0.00 0.00 0.00 99 1015.3
20260905093435 22 208 0.0 0.0 0.00 0.00 0.00 99 1015.2
20260905092931 22 216 0.0 0.0 0.00 0.00 0.00 99 1015.4
20260905092426 22 215 0.0 0.0 0.00 0.00 0.00 99 1015.3
20260905091920 22 216 0.0 0.0 0.00 0.00 0.00 99 1015.3
20260905091415 22 215 0.0 0.0 0.00 0.00 0.00 99 1015.3
20260905090914 22 216 0.0 0.0 0.00 0.00 0.00 99 1015.4
20260905090410 22 213 0.0 0.0 0.00 0.00 0.00 99 1015.2
20260905085909 22 215 0.0 0.0 0.00 0.00 0.00 99 1015.2
20260905085409 23 213 0.0 0.0 0.00 0.00 0.00 99 1015.3
20260905084905 23 213 0.0 0.0 0.00 0.00 0.00 99 1015.2
20260905084403 23 213 0.0 0.0 0.00 0.00 0.00 99 1015.4
20260905083859 23 215 0.0 0.0 0.00 0.00 0.00 99 1015.1
20260905083354 23 215 0.0 0.0 0.00 0.00 0.00 99 1015.3
20260905082850 23 216 0.0 0.0 0.00 0.00 0.00 99 1015.1
20260905082346 23 216 0.0 0.0 0.00 0.00 0.00 99 1015.5
20260905081841 23 215 0.0 0.0 0.00 0.00 0.00 99 1015.3
20260905081336 23 215 0.0 0.0 0.00 0.00 0.00 99 1015.4
20260905080835 23 215 0.0 0.0 0.00 0.00 0.00 99 1015.2
20260905080335 23 215 0.0 0.0 0.00 0.00 0.00 99 1015.4
20260905075833 23 215 0.0 0.0 0.00 0.00 0.00 99 1015.4
20260905075328 23 215 0.0 0.0 0.00 0.00 0.00 99 1015.4
20260905074827 23 212 0.0 0.0 0.00 0.00 0.00 99 1015.4
20260905074323 23 213 0.0 0.0 0.00 0.00 0.00 99 1015.4
20260905073819 23 213 0.0 0.0 0.00 0.00 0.00 99 1015.0
20260905073313 23 213 0.0 0.0 0.00 0.00 0.00 99 1015.3
20260905072808 23 213 0.0 0.0 0.00 0.00 0.00 99 1015.1
20260905072306 23 208 0.0 0.0 0.00 0.00 0.00 99 1015.1
20260905071800 23 208 0.0 0.0 0.00 0.00 0.00 98 1015.2
20260905071256 23 208 0.0 0.0 0.00 0.00 0.00 98 1015.2
20260905070750 23 208 0.0 0.0 0.00 0.00 0.00 98 1015.3
20260905070247 23 208 0.0 0.0 0.00 0.00 0.00 98 1015.1
20260905065745 23 208 0.0 0.0 0.00 0.00 0.00 98 1015.2
20260905065239 23 215 0.0 0.0 0.00 0.00 0.00 98 1015.3
20260905064734 23 215 0.0 0.0 0.00 0.00 0.00 98 1015.2
20260905064230 23 215 0.0 0.0 0.00 0.00 0.00 97 1015.0
20260905063728 23 215 0.0 0.0 0.00 0.00 0.00 97 1015.3
20260905063224 23 213 0.0 0.0 0.00 0.00 0.00 97 1015.0
20260905062720 23 213 0.0 0.0 0.00 0.00 0.00 96 1015.1
20260905062219 23 213 0.0 0.0 0.00 0.00 0.00 96 1015.0
20260905061714 23 215 0.0 0.0 0.00 0.00 0.00 96 1014.8
20260905061209 24 215 0.0 0.0 0.00 0.00 0.00 96 1015.0
20260905060704 24 215 0.0 0.0 0.00 0.00 0.00 96 1015.2
20260905060201 24 212 0.0 0.0 0.00 0.00 0.00 96 1015.1
20260905055659 24 208 0.0 0.0 0.00 0.00 0.00 96 1015.3
20260905055154 24 216 0.0 0.0 0.00 0.00 0.00 96 1015.2
20260905054649 24 216 0.0 0.0 0.00 0.00 0.00 96 1015.2
20260905054145 24 216 0.0 0.0 0.00 0.00 0.00 95 1015.2
20260905053645 24 207 0.0 0.0 0.00 0.00 0.00 96 1015.1
20260905053140 24 207 0.0 0.0 0.00 0.00 0.00 95 1015.4
20260905052639 24 207 0.0 0.0 0.00 0.00 0.00 95 1015.4
20260905052135 24 207 0.0 0.0 0.00 0.00 0.00 95 1015.4
20260905051629 24 216 0.0 0.0 0.00 0.00 0.00 95 1015.5
20260905051126 24 215 0.0 0.0 0.00 0.00 0.00 94 1015.4
20260905050622 24 215 0.0 0.0 0.00 0.00 0.00 94 1015.6
20260905050119 24 215 0.0 0.0 0.00 0.00 0.00 94 1015.6
20260905045618 24 213 0.0 0.0 0.00 0.00 0.00 95 1015.6
20260905045114 24 213 0.0 0.0 0.00 0.00 0.00 95 1015.7
20260905044614 24 207 0.0 0.0 0.00 0.00 0.00 95 1015.9
20260905044109 24 207 0.0 0.0 0.00 0.00 0.00 95 1015.6
20260905043607 25 215 0.0 0.0 0.00 0.00 0.00 95 1015.4
20260905043103 24 215 0.0 0.0 0.00 0.00 0.00 95 1015.7
20260905042601 25 215 0.0 0.0 0.00 0.00 0.00 95 1015.6
20260905042057 25 215 0.0 0.0 0.00 0.00 0.00 95 1015.8
20260905041552 25 215 0.0 0.0 0.00 0.00 0.00 95 1015.8
20260905041048 25 215 0.0 0.0 0.00 0.00 0.00 94 1015.6
20260905040547 25 215 0.0 0.0 0.00 0.00 0.00 94 1015.5
20260905040046 25 207 0.0 0.0 0.00 0.00 0.00 94 1015.6
20260905035541 25 215 0.0 0.0 0.00 0.00 0.00 94 1015.9
20260905035038 25 213 0.0 0.0 0.00 0.00 0.00 94 1015.9
20260905034533 25 215 0.0 0.0 0.00 0.00 0.00 94 1016.1
20260905034033 25 213 0.0 0.0 0.00 0.00 0.00 94 1015.9
20260905033527 25 213 0.0 0.0 0.00 0.00 0.00 93 1015.9
20260905033023 25 213 0.0 0.0 0.00 0.00 0.00 93 1015.9
20260905032517 25 207 0.0 0.0 0.00 0.00 0.00 93 1016.0
20260905032013 25 213 0.0 0.0 0.00 0.00 0.00 93 1016.0
20260905031509 25 213 0.0 0.0 0.00 0.00 0.00 92 1015.9
20260905031003 26 213 0.0 0.0 0.00 0.00 0.00 92 1016.2
20260905030459 26 207 0.0 0.0 0.00 0.00 0.00 92 1015.9
20260905025957 26 207 0.0 0.0 0.00 0.00 0.00 92 1016.0
20260905025453 26 207 0.0 0.0 0.00 0.00 0.00 92 1016.1
20260905024949 26 213 0.0 0.0 0.00 0.00 0.00 90 1016.0
20260905024449 26 215 0.0 0.0 0.00 0.00 0.00 90 1016.2
20260905023940 26 213 0.0 0.0 0.00 0.00 0.00 90 1016.0
20260905023434 26 213 0.0 0.0 0.00 0.00 0.00 89 1016.2
20260905022933 26 207 0.0 0.0 0.00 0.00 0.00 88 1016.1
20260905022428 26 215 0.0 0.0 0.00 0.00 0.00 87 1016.3
20260905021923 26 215 0.0 0.0 0.00 0.00 0.00 88 1016.2
20260905021418 26 215 0.0 0.0 0.00 0.00 0.00 85 1016.2
20260905020914 26 215 0.0 0.0 0.00 0.00 0.00 86 1016.2
20260905020412 26 215 0.0 0.0 0.00 0.00 0.00 87 1016.3
20260905015912 26 211 0.0 0.0 0.00 0.00 0.00 87 1016.2
20260905015410 26 215 0.0 0.0 0.00 0.00 0.00 88 1016.1
20260905014910 26 215 0.0 0.0 0.00 0.00 0.00 88 1016.1
20260905014405 26 215 0.0 0.0 0.00 0.00 0.00 88 1016.2
20260905013900 27 213 0.0 0.0 0.00 0.00 0.00 87 1016.1
20260905013357 27 213 0.0 0.0 0.00 0.00 0.00 86 1016.0
20260905012852 27 213 0.0 0.0 0.00 0.00 0.00 85 1016.1
20260905012348 27 207 0.0 0.0 0.00 0.00 0.00 84 1016.0
20260905011844 27 213 0.0 0.0 0.00 0.00 0.00 84 1016.0
20260905011339 27 207 0.0 0.0 0.00 0.00 0.00 84 1016.1
20260905010835 27 213 0.0 0.0 0.00 0.00 0.00 84 1016.0
20260905010330 27 215 0.0 0.0 0.00 0.00 0.00 84 1016.0
20260905005826 27 213 0.0 0.0 0.00 0.00 0.00 83 1015.9
20260905005321 27 213 0.0 0.0 0.00 0.00 0.00 84 1016.0
20260905004816 27 213 0.0 0.0 0.00 0.00 0.00 84 1015.9
20260905004311 27 213 0.0 0.0 0.00 0.00 0.00 84 1015.9
20260905003807 28 206 0.0 0.0 0.00 0.00 0.00 83 1015.8
20260905003303 28 206 0.0 0.0 0.00 0.00 0.00 84 1015.8
20260905002758 28 206 0.0 0.0 0.00 0.00 0.00 84 1015.8
20260905002257 28 213 0.0 0.0 0.00 0.00 0.00 84 1015.6
20260905001752 28 213 0.0 0.0 0.00 0.00 0.00 82 1015.5
20260905001252 29 213 0.0 0.0 0.00 0.00 0.00 82 1015.6
20260905000747 29 206 0.0 0.0 0.00 0.00 0.00 81 1015.8
20260905000243 30 215 0.0 0.0 0.00 0.00 0.00 79 1015.7
20260904235738 30 215 0.0 0.0 0.00 0.00 0.00 79 1015.8
20260904235232 30 211 0.0 0.0 0.00 0.00 0.00 79 1015.9
20260904234727 31 211 0.0 0.0 0.00 0.00 0.00 77 1015.9
20260904234223 31 211 0.0 0.0 0.00 0.00 0.00 75 1015.9
20260904233718 32 212 0.0 0.0 0.00 0.00 0.00 72 1015.6
20260904233215 32 212 0.0 0.0 0.00 0.00 0.00 71 1015.7
20260904232711 32 214 0.0 0.0 0.00 0.00 0.00 71 1015.7
20260904232207 32 214 0.0 0.0 0.00 0.00 0.00 71 1015.5
20260904231702 33 214 0.0 0.0 0.00 0.00 0.00 67 1015.3
20260904231157 33 214 0.0 0.0 0.00 0.00 0.00 65 1015.5
20260904230657 33 214 0.0 0.0 0.00 0.00 0.00 65 1015.5
20260904230152 33 215 0.0 0.0 0.00 0.00 0.00 62 1015.4
20260904225650 33 214 0.0 0.0 0.00 0.00 0.00 61 1015.3
20260904225145 33 212 0.0 0.0 0.00 0.00 0.00 58 1015.3
20260904224639 34 214 0.0 0.0 0.00 0.00 0.00 56 1015.3
20260904224133 34 213 0.0 1.6 0.00 0.00 0.00 54 1015.4
20260904223633 35 213 0.0 3.2 0.00 0.00 0.00 56 1015.2
20260904223128 35 219 0.0 3.2 0.00 0.00 0.00 54 1015.3
20260904222624 35 219 0.0 0.0 0.00 0.00 0.00 54 1015.5
20260904222114 35 219 0.0 0.0 0.00 0.00 0.00 57 1015.3
20260904221614 35 219 0.0 0.0 0.00 0.00 0.00 55 1015.2
20260904221113 34 219 0.0 4.8 0.00 0.00 0.00 56 1015.2
20260904220609 35 215 4.8 6.4 0.00 0.00 0.00 55 1015.1
20260904220104 35 219 0.0 3.2 0.00 0.00 0.00 55 1015.3
20260904215604 35 219 3.2 3.2 0.00 0.00 0.00 52 1015.1
20260904215100 34 215 1.6 6.4 0.00 0.00 0.00 52 1015.2
20260904214555 35 219 0.0 4.8 0.00 0.00 0.00 52 1015.1
20260904214051 35 219 3.2 4.8 0.00 0.00 0.00 52 1015.0
20260904213548 35 210 1.6 4.8 0.00 0.00 0.00 51 1015.1
20260904213045 35 219 0.0 3.2 0.00 0.00 0.00 54 1015.2
20260904212545 35 219 0.0 3.2 0.00 0.00 0.00 54 1015.3
20260904212040 35 219 1.6 4.8 0.00 0.00 0.00 54 1015.4
20260904211539 35 213 3.2 3.2 0.00 0.00 0.00 56 1015.5
20260904211035 34 214 0.0 0.0 0.00 0.00 0.00 57 1015.3
20260904210534 33 212 0.0 3.2 0.00 0.00 0.00 58 1015.5
20260904210030 33 211 1.6 3.2 0.00 0.00 0.00 58 1015.5
20260904205526 34 213 0.0 3.2 0.00 0.00 0.00 58 1015.5
20260904205022 35 222 1.6 6.4 0.00 0.00 0.00 56 1015.7
20260904204518 35 219 1.6 3.2 0.00 0.00 0.00 56 1015.6
20260904204014 35 219 0.0 0.0 0.00 0.00 0.00 55 1015.7
20260904203509 36 219 3.2 4.8 0.00 0.00 0.00 53 1015.8
20260904203006 36 216 3.2 4.8 0.00 0.00 0.00 51 1015.6
20260904202501 35 221 0.0 0.0 0.00 0.00 0.00 53 1015.7
20260904201957 34 219 0.0 6.4 0.00 0.00 0.00 56 1015.7
20260904201452 36 213 3.2 4.8 0.00 0.00 0.00 54 1015.8
20260904200948 36 221 1.6 6.4 0.00 0.00 0.00 53 1015.7
20260904200446 35 219 1.6 4.8 0.00 0.00 0.00 54 1016.0
20260904195941 35 219 0.0 3.2 0.00 0.00 0.00 53 1015.9
20260904195439 35 219 0.0 1.6 0.00 0.00 0.00 55 1016.1
20260904194939 35 213 0.0 0.0 0.00 0.00 0.00 55 1016.3
20260904194434 35 213 1.6 3.2 0.00 0.00 0.00 55 1016.2
20260904193929 35 219 0.0 0.0 0.00 0.00 0.00 54 1016.4
20260904193424 35 219 6.4 9.7 0.00 0.00 0.00 53 1016.6
20260904192919 35 213 1.6 4.8 0.00 0.00 0.00 53 1016.5
20260904192414 35 218 0.0 0.0 0.00 0.00 0.00 55 1016.6
20260904191910 35 214 0.0 0.0 0.00 0.00 0.00 55 1016.6
20260904191406 35 217 0.0 9.7 0.00 0.00 0.00 53 1016.7
20260904190903 35 218 0.0 1.6 0.00 0.00 0.00 55 1016.8
20260904190358 34 218 0.0 6.4 0.00 0.00 0.00 55 1017.0
20260904185855 34 215 1.6 6.4 0.00 0.00 0.00 57 1017.0
20260904185350 34 214 1.6 9.7 0.00 0.00 0.00 57 1017.2
20260904184850 33 211 0.0 0.0 0.00 0.00 0.00 58 1017.1
20260904184344 33 212 3.2 3.2 0.00 0.00 0.00 59 1017.3
20260904183840 35 218 3.2 3.2 0.00 0.00 0.00 59 1017.4
20260904183335 35 218 4.8 4.8 0.00 0.00 0.00 57 1017.4
20260904182830 33 212 0.0 3.2 0.00 0.00 0.00 61 1017.4
20260904182325 33 222 0.0 0.0 0.00 0.00 0.00 61 1017.8
20260904181821 33 214 0.0 3.2 0.00 0.00 0.00 63 1017.5
20260904181321 33 211 3.2 9.7 0.00 0.00 0.00 61 1017.5
20260904180816 33 215 1.6 3.2 0.00 0.00 0.00 61 1017.7
20260904180311 34 218 1.6 3.2 0.00 0.00 0.00 58 1017.7
20260904175810 33 218 1.6 3.2 0.00 0.00 0.00 60 1017.9
20260904175308 34 220 3.2 6.4 0.00 0.00 0.00 59 1017.8
20260904174803 33 212 0.0 1.6 0.00 0.00 0.00 62 1018.1
20260904174259 33 214 0.0 1.6 0.00 0.00 0.00 63 1017.9
20260904173755 33 214 0.0 0.0 0.00 0.00 0.00 63 1018.0
20260904173250 33 212 0.0 6.4 0.00 0.00 0.00 63 1018.1
20260904172746 33 218 0.0 0.0 0.00 0.00 0.00 61 1018.2
20260904172245 33 214 0.0 0.0 0.00 0.00 0.00 64 1018.2
20260904171740 33 217 0.0 3.2 0.00 0.00 0.00 62 1018.3
20260904171235 33 215 0.0 3.2 0.00 0.00 0.00 63 1018.4
20260904170732 32 215 0.0 0.0 0.00 0.00 0.00 66 1018.4
20260904170228 32 227 3.2 6.4 0.00 0.00 0.00 65 1018.5
20260904165726 32 217 0.0 3.2 0.00 0.00 0.00 66 1018.4
20260904165221 32 210 0.0 0.0 0.00 0.00 0.00 68 1018.7
20260904164715 32 215 0.0 3.2 0.00 0.00 0.00 68 1018.6
20260904164210 32 210 0.0 4.8 0.00 0.00 0.00 67 1018.7
20260904163707 32 212 1.6 3.2 0.00 0.00 0.00 66 1018.8
20260904163202 32 217 1.6 3.2 0.00 0.00 0.00 66 1018.7
20260904162700 31 220 0.0 3.2 0.00 0.00 0.00 66 1018.7
20260904162155 31 219 3.2 4.8 0.00 0.00 0.00 66 1019.0
20260904161651 32 219 3.2 4.8 0.00 0.00 0.00 65 1018.9
20260904161146 31 220 1.6 4.8 0.00 0.00 0.00 66 1018.8
20260904160642 31 220 1.6 1.6 0.00 0.00 0.00 67 1019.1
20260904160137 31 215 0.0 1.6 0.00 0.00 0.00 69 1019.1
20260904155632 31 217 0.0 3.2 0.00 0.00 0.00 70 1018.8
20260904155126 31 220 0.0 4.8 0.00 0.00 0.00 71 1019.1
20260904154624 31 219 4.8 6.4 0.00 0.00 0.00 71 1018.9
20260904154119 31 216 3.2 3.2 0.00 0.00 0.00 72 1019.1
20260904153614 30 215 0.0 3.2 0.00 0.00 0.00 71 1018.9
20260904153110 30 215 1.6 3.2 0.00 0.00 0.00 71 1019.0
20260904152606 30 215 0.0 0.0 0.00 0.00 0.00 72 1019.0
20260904152101 30 212 0.0 0.0 0.00 0.00 0.00 73 1019.1
20260904151556 30 217 3.2 4.8 0.00 0.00 0.00 73 1019.0
20260904151055 30 217 4.8 4.8 0.00 0.00 0.00 75 1019.0
20260904150550 30 217 3.2 3.2 0.00 0.00 0.00 76 1019.2
20260904150045 29 217 1.6 4.8 0.00 0.00 0.00 76 1018.9
20260904145544 30 217 0.0 4.8 0.00 0.00 0.00 76 1018.9
20260904145039 30 221 3.2 3.2 0.00 0.00 0.00 74 1018.8
20260904144535 29 212 0.0 3.2 0.00 0.00 0.00 75 1019.0
20260904144031 29 215 0.0 3.2 0.00 0.00 0.00 75 1019.0
20260904143527 29 217 3.2 3.2 0.00 0.00 0.00 75 1019.0
20260904143024 28 215 0.0 1.6 0.00 0.00 0.00 75 1018.8
20260904142520 28 215 0.0 3.2 0.00 0.00 0.00 77 1018.8
20260904142020 28 216 0.0 1.6 0.00 0.00 0.00 77 1018.7
20260904141515 28 217 3.2 3.2 0.00 0.00 0.00 78 1018.8